Tracking 28052 objects as of 24-Sep-2023
HD Live streaming from Space Station
objects crossing your sky now

STARLINK-6306

Track STARLINK-6306 now!
10-day predictions
STARLINK-6306 is classified as:


NORAD ID: 57242
Int'l Code: 2023-094AA
Perigee: 555.4 km
Apogee: 557.2 km
Inclination: 43.0 °
Period: 95.6 minutes
Semi major axis: 6927 km
RCS: Unknown
Launch date: July 7, 2023
Source: United States (US)
Launch site: AIR FORCE WESTERN TEST RANGE (AFWTR)
Your satellite tracking list
Your tracking list is empty




NASA's NSSDC Master Catalog

Two Line Element Set (TLE):
1 57242U 23094AA  23267.16668981 -.00905094  00000-0 -66404-1 0  9993
2 57242  42.9985 214.8104 0001302 271.0726  38.6198 15.05776067 12439
Source of the keplerian elements: AFSPC